K5RNB Weather Reports


Display with metric or nautical units.
time (UTC)temp
F
wind
direction
speed
MPH
gust
MPH
rain 1hr
in
rain 24hr
in
rain mn
in
humidity
%
barometer
mb
20260903213925 92 118 5.0 18.0 0.00 0.00 0.00 60 1008.8
20260903212925 92 126 10.0 20.0 0.00 0.00 0.00 61 1008.7
20260903212425 91 125 12.0 20.0 0.00 0.00 0.00 61 1008.7
20260903211925 91 127 10.0 15.0 0.00 0.00 0.00 62 1008.8
20260903211425 92 155 12.0 20.0 0.00 0.00 0.00 61 1008.8
20260903210925 91 175 11.0 20.0 0.00 0.00 0.00 63 1009.0
20260903205927 90 187 13.0 20.0 0.00 0.00 0.00 64 1009.1
20260903205425 90 196 12.0 20.0 0.00 0.00 0.00 64 1009.2
20260903204925 91 175 13.0 20.0 0.00 0.00 0.00 64 1009.4
20260903204425 91 151 13.0 23.0 0.00 0.00 0.00 64 1009.4
20260903203925 91 168 13.0 23.0 0.00 0.00 0.00 64 1009.3
20260903203425 91 141 12.0 20.0 0.00 0.00 0.00 65 1009.4
20260903202925 90 158 13.0 22.0 0.00 0.00 0.00 65 1009.4
20260903202425 90 171 13.0 22.0 0.00 0.00 0.00 65 1009.5
20260903201926 90 158 13.0 21.0 0.00 0.00 0.00 64 1009.6
20260903200925 91 162 14.0 20.0 0.00 0.00 0.00 64 1009.7
20260903200425 91 153 12.0 22.0 0.00 0.00 0.00 66 1009.6
20260903195925 90 160 11.0 22.0 0.00 0.00 0.00 66 1009.7
20260903195425 90 149 10.0 20.0 0.00 0.00 0.00 67 1009.7
20260903194926 90 176 13.0 20.0 0.00 0.00 0.00 66 1009.9
20260903194426 90 125 10.0 22.0 0.00 0.00 0.00 67 1009.8
20260903193426 89 161 14.0 23.0 0.00 0.00 0.00 68 1010.0
20260903192926 89 174 13.0 20.0 0.00 0.00 0.00 68 1010.1
20260903191425 89 166 15.0 20.0 0.00 0.00 0.00 68 1010.3
20260903190927 89 189 10.0 22.0 0.00 0.00 0.00 68 1010.3
20260903185925 90 162 7.0 15.0 0.00 0.00 0.00 67 1010.5
20260903185425 90 126 9.0 16.0 0.00 0.00 0.00 67 1010.6
20260903184426 89 161 12.0 23.0 0.00 0.00 0.00 67 1010.7
20260903183926 90 135 10.0 23.0 0.00 0.00 0.00 66 1010.7
20260903183426 90 163 14.0 23.0 0.00 0.00 0.00 66 1010.8
20260903182928 90 126 10.0 20.0 0.00 0.00 0.00 67 1010.8
20260903182426 90 175 14.0 20.0 0.00 0.00 0.00 66 1010.8
20260903181926 89 156 11.0 20.0 0.00 0.00 0.00 68 1010.8
20260903181426 89 196 12.0 23.0 0.00 0.00 0.00 68 1010.8
20260903180928 89 147 14.0 23.0 0.00 0.00 0.00 68 1010.9
20260903180426 89 169 12.0 20.0 0.00 0.00 0.00 68 1011.0
20260903175426 88 193 10.0 16.0 0.00 0.00 0.00 69 1011.1
20260903174926 88 188 8.0 18.0 0.00 0.00 0.00 70 1011.3
20260903174426 87 143 12.0 18.0 0.00 0.00 0.00 70 1011.3
20260903173926 87 140 8.0 20.0 0.00 0.00 0.00 71 1011.4
20260903172926 86 189 10.0 18.0 0.00 0.00 0.00 71 1011.6
20260903172426 86 197 10.0 18.0 0.00 0.00 0.00 72 1011.7
20260903171926 86 152 11.0 18.0 0.00 0.00 0.00 72 1011.6
20260903171426 86 173 10.0 18.0 0.00 0.00 0.00 72 1011.7
20260903170926 86 164 11.0 17.0 0.00 0.00 0.00 72 1011.7
20260903170426 86 170 9.0 14.0 0.00 0.00 0.00 73 1011.7
20260903165928 85 188 9.0 17.0 0.00 0.00 0.00 73 1011.6
20260903164927 85 176 10.0 16.0 0.00 0.00 0.00 73 1011.6
20260903164427 85 154 7.0 16.0 0.00 0.00 0.00 73 1011.7
20260903163426 84 186 11.0 16.0 0.00 0.00 0.00 74 1011.8
20260903162928 84 163 13.0 16.0 0.00 0.00 0.00 74 1011.7
20260903162426 84 109 8.0 16.0 0.00 0.00 0.00 75 1011.7
20260903161928 84 136 10.0 16.0 0.00 0.00 0.00 75 1011.9
20260903161427 85 148 10.0 14.0 0.00 0.00 0.00 74 1011.8
20260903155927 84 158 7.0 13.0 0.00 0.00 0.00 76 1011.7
20260903155427 84 123 8.0 12.0 0.00 0.00 0.00 76 1011.5
20260903154926 84 159 3.0 12.0 0.00 0.00 0.00 78 1011.8
20260903154428 83 150 9.0 12.0 0.00 0.00 0.00 78 1011.7
20260903153927 82 177 7.0 12.0 0.00 0.00 0.00 78 1011.7
20260903152927 82 182 7.0 12.0 0.00 0.00 0.00 78 1011.7
20260903152427 83 153 7.0 12.0 0.00 0.00 0.00 78 1011.7
20260903151927 83 143 8.0 12.0 0.00 0.00 0.00 78 1011.7
20260903151427 82 137 7.0 12.0 0.00 0.00 0.00 78 1011.7
20260903150927 82 121 6.0 12.0 0.00 0.00 0.00 79 1011.7
20260903150427 82 118 7.0 12.0 0.00 0.00 0.00 78 1011.7
20260903145929 82 124 6.0 14.0 0.00 0.00 0.00 78 1011.7
20260903144427 82 142 6.0 12.0 0.00 0.00 0.00 78 1011.9
20260903143927 82 131 5.0 15.0 0.00 0.00 0.00 78 1011.7
20260903143428 82 126 8.0 15.0 0.00 0.00 0.00 77 1011.7
20260903142927 82 148 8.0 12.0 0.00 0.00 0.00 76 1011.8
20260903142428 83 139 7.0 12.0 0.00 0.00 0.00 75 1011.7
20260903141928 83 127 6.0 12.0 0.00 0.00 0.00 75 1011.7
20260903140927 83 105 5.0 13.0 0.00 0.00 0.00 76 1011.7
20260903140427 83 117 6.0 12.0 0.00 0.00 0.00 75 1011.6
20260903135927 84 107 5.0 12.0 0.00 0.00 0.00 76 1011.7
20260903134928 83 99 2.0 8.0 0.00 0.00 0.00 77 1011.6
20260903134427 83 91 3.0 9.0 0.00 0.00 0.00 78 1011.7
20260903133927 82 87 3.0 9.0 0.00 0.00 0.00 78 1011.7
20260903133428 82 90 4.0 9.0 0.00 0.00 0.00 78 1011.8
20260903131928 82 80 2.0 7.0 0.00 0.00 0.00 80 1011.6
20260903131428 81 85 2.0 7.0 0.00 0.00 0.00 81 1011.8
20260903130928 80 119 0.0 3.0 0.00 0.00 0.00 82 1011.6
20260903130428 80 79 1.0 3.0 0.00 0.00 0.00 81 1011.6
20260903125927 80 85 2.0 5.0 0.00 0.00 0.00 82 1011.7
20260903125428 80 79 1.0 5.0 0.00 0.00 0.00 82 1011.6
20260903124927 80 72 2.0 3.0 0.00 0.00 0.00 81 1011.6
20260903124428 80 88 0.0 1.0 0.00 0.00 0.00 81 1011.5
20260903123928 80 66 0.0 1.0 0.00 0.00 0.00 82 1011.5
20260903123428 79 92 0.0 3.0 0.00 0.00 0.00 81 1011.4
20260903122930 80 89 1.0 3.0 0.00 0.00 0.00 82 1011.3
20260903122427 79 77 2.0 3.0 0.00 0.00 0.00 82 1011.4
20260903121428 79 82 1.0 3.0 0.00 0.00 0.00 81 1011.3
20260903120928 80 91 1.0 5.0 0.00 0.00 0.00 81 1011.1
20260903120428 79 88 2.0 5.0 0.00 0.00 0.00 81 1011.1
20260903115428 80 80 0.0 3.0 0.00 0.00 0.00 81 1011.0
20260903114929 80 84 1.0 6.0 0.00 0.00 0.00 80 1011.1
20260903114428 80 85 2.0 6.0 0.00 0.00 0.00 80 1011.0
20260903113928 80 71 2.0 5.0 0.00 0.00 0.00 80 1011.1
20260903113428 80 85 1.0 3.0 0.00 0.00 0.00 80 1011.0
20260903112928 80 87 1.0 3.0 0.00 0.00 0.00 79 1011.2
20260903111428 80 89 1.0 3.0 0.00 0.00 0.00 80 1011.0
20260903110429 80 81 1.0 3.0 0.00 0.00 0.00 81 1010.9
20260903105929 79 118 2.0 3.0 0.00 0.00 0.00 81 1010.8
20260903105429 80 122 3.0 3.0 0.00 0.00 0.00 81 1010.8
20260903104929 79 109 2.0 6.0 0.00 0.00 0.00 81 1010.7
20260903103928 79 110 3.0 6.0 0.00 0.00 0.00 81 1010.8
20260903102929 80 140 3.0 5.0 0.00 0.00 0.00 79 1010.8
20260903102428 80 137 3.0 5.0 0.00 0.00 0.00 78 1010.9
20260903101929 81 124 2.0 7.0 0.00 0.00 0.00 77 1010.9
20260903100929 82 89 2.0 6.0 0.00 0.00 0.00 76 1010.8
20260903100428 82 103 2.0 6.0 0.00 0.00 0.00 77 1010.8
20260903095429 82 92 3.0 8.0 0.00 0.00 0.00 76 1010.8
20260903094929 82 97 3.0 8.0 0.00 0.00 0.00 76 1010.9
20260903094429 82 94 2.0 9.0 0.00 0.00 0.00 76 1010.8
20260903093929 82 89 4.0 9.0 0.00 0.00 0.00 75 1010.8
20260903093429 82 99 5.0 9.0 0.00 0.00 0.00 75 1010.9
20260903092930 82 83 2.0 10.0 0.00 0.00 0.00 75 1010.7
20260903092429 82 87 3.0 10.0 0.00 0.00 0.00 74 1010.8
20260903091930 83 96 3.0 9.0 0.00 0.00 0.00 74 1010.7
20260903091428 83 86 3.0 5.0 0.00 0.00 0.00 75 1010.7
20260903090929 82 96 1.0 5.0 0.00 0.00 0.00 74 1010.6
20260903090429 83 84 3.0 5.0 0.00 0.00 0.00 74 1010.7
20260903085929 82 85 0.0 3.0 0.00 0.00 0.00 75 1010.7
20260903085429 82 77 1.0 3.0 0.00 0.00 0.00 75 1010.8
20260903083930 81 103 0.0 2.0 0.00 0.00 0.00 76 1010.8
20260903083429 81 103 1.0 2.0 0.00 0.00 0.00 75 1010.8
20260903082429 82 103 0.0 1.0 0.00 0.00 0.00 75 1010.8
20260903081430 82 103 0.0 2.0 0.00 0.00 0.00 75 1011.0
20260903080930 82 103 0.0 3.0 0.00 0.00 0.00 74 1011.1
20260903080429 82 94 0.0 3.0 0.00 0.00 0.00 74 1011.0
20260903075929 82 52 0.0 1.0 0.00 0.00 0.00 74 1011.0
20260903075429 82 69 0.0 3.0 0.00 0.00 0.00 75 1010.9
20260903074929 82 90 1.0 3.0 0.00 0.00 0.00 75 1010.9
20260903074430 82 75 1.0 6.0 0.00 0.00 0.00 75 1010.9
20260903073930 81 86 2.0 7.0 0.00 0.00 0.00 75 1011.0
20260903072930 82 97 3.0 7.0 0.00 0.00 0.00 75 1010.9
20260903072430 82 92 1.0 3.0 0.00 0.00 0.00 74 1010.9
20260903071930 82 91 2.0 3.0 0.00 0.00 0.00 74 1011.0
20260903071430 82 88 2.0 7.0 0.00 0.00 0.00 74 1010.9
20260903070929 82 88 3.0 8.0 0.00 0.00 0.00 75 1011.1
20260903070430 82 112 4.0 9.0 0.00 0.00 0.00 74 1011.0
20260903065930 82 99 4.0 9.0 0.00 0.00 0.00 74 1011.1
20260903065430 82 98 5.0 9.0 0.00 0.00 0.00 74 1011.0
20260903064930 82 102 5.0 12.0 0.00 0.00 0.00 74 1011.2
20260903064430 82 99 5.0 12.0 0.00 0.00 0.00 73 1011.1
20260903063430 82 96 4.0 10.0 0.00 0.00 0.00 73 1011.2
20260903062929 82 108 5.0 9.0 0.00 0.00 0.00 72 1011.2
20260903061930 83 113 5.0 13.0 0.00 0.00 0.00 72 1011.2
20260903061430 83 122 5.0 13.0 0.00 0.00 0.00 71 1011.4
20260903060930 83 101 6.0 13.0 0.00 0.00 0.00 71 1011.3
20260903060430 83 124 7.0 13.0 0.00 0.00 0.00 70 1011.4
20260903055930 83 91 4.0 13.0 0.00 0.00 0.00 70 1011.4
20260903055430 83 96 9.0 14.0 0.00 0.00 0.00 69 1011.6
20260903054430 84 112 9.0 17.0 0.00 0.00 0.00 67 1011.6
20260903053930 84 109 9.0 16.0 0.00 0.00 0.00 66 1011.4
20260903052931 85 100 8.0 13.0 0.00 0.00 0.00 64 1011.6
20260903051430 85 102 5.0 12.0 0.00 0.00 0.00 64 1011.6
20260903050431 85 100 7.0 12.0 0.00 0.00 0.00 64 1011.5
20260903045431 85 100 5.0 17.0 0.00 0.00 0.00 64 1011.4
20260903044931 86 113 10.0 17.0 0.00 0.00 0.00 63 1011.3
20260903044430 86 112 8.0 13.0 0.00 0.00 0.00 62 1011.4
20260903043931 86 90 5.0 9.0 0.00 0.00 0.00 63 1011.3
20260903043431 86 104 5.0 12.0 0.00 0.00 0.00 63 1011.4
20260903042931 86 109 5.0 14.0 0.00 0.00 0.00 63 1011.3
20260903042431 86 115 7.0 16.0 0.00 0.00 0.00 62 1011.3
20260903041931 87 100 7.0 16.0 0.00 0.00 0.00 62 1011.3
20260903041431 87 122 7.0 13.0 0.00 0.00 0.00 61 1011.4
20260903040931 87 119 7.0 15.0 0.00 0.00 0.00 61 1011.3
20260903040431 87 115 6.0 15.0 0.00 0.00 0.00 61 1011.4
20260903035931 87 109 7.0 18.0 0.00 0.00 0.00 60 1011.3
20260903035433 87 108 10.0 18.0 0.00 0.00 0.00 60 1011.4
20260903034931 88 126 8.0 20.0 0.00 0.00 0.00 60 1011.3
20260903034431 88 128 9.0 20.0 0.00 0.00 0.00 59 1011.4
20260903033431 90 109 6.0 12.0 0.00 0.00 0.00 57 1011.2
20260903032931 90 109 6.0 12.0 0.00 0.00 0.00 55 1011.2
20260903031932 91 101 5.0 10.0 0.00 0.00 0.00 54 1011.2
20260903031431 91 105 5.0 12.0 0.00 0.00 0.00 54 1011.2
20260903030432 91 101 5.0 13.0 0.00 0.00 0.00 53 1011.0
20260903025931 91 104 7.0 13.0 0.00 0.00 0.00 53 1010.9
20260903025433 92 103 6.0 10.0 0.00 0.00 0.00 52 1010.7
20260903024931 92 98 5.0 13.0 0.00 0.00 0.00 52 1010.7
20260903024431 92 118 6.0 13.0 0.00 0.00 0.00 52 1010.7
20260903023931 92 94 6.0 13.0 0.00 0.00 0.00 52 1010.7
20260903023431 92 106 5.0 16.0 0.00 0.00 0.00 52 1010.6
20260903022932 92 114 8.0 16.0 0.00 0.00 0.00 52 1010.7
20260903022432 92 102 9.0 15.0 0.00 0.00 0.00 51 1010.7
20260903021931 93 109 3.0 12.0 0.00 0.00 0.00 51 1010.5
20260903020932 93 107 4.0 12.0 0.00 0.00 0.00 51 1010.3
20260903015931 93 110 7.0 12.0 0.00 0.00 0.00 51 1010.2
20260903015432 93 102 5.0 13.0 0.00 0.00 0.00 51 1010.0
20260903014932 93 107 6.0 16.0 0.00 0.00 0.00 50 1010.0
20260903014431 93 104 7.0 18.0 0.00 0.00 0.00 50 1009.9
20260903013932 93 120 9.0 18.0 0.00 0.00 0.00 50 1009.9
20260903012932 94 114 7.0 15.0 0.00 0.00 0.00 49 1009.8
20260903012432 94 106 8.0 16.0 0.00 0.00 0.00 49 1009.6
20260903011432 95 106 7.0 13.0 0.00 0.00 0.00 49 1009.5
20260903010932 95 116 6.0 12.0 0.00 0.00 0.00 48 1009.6
20260903010432 95 82 5.0 14.0 0.00 0.00 0.00 48 1009.4
20260903005932 96 104 6.0 15.0 0.00 0.00 0.00 47 1009.5
20260903005432 97 120 6.0 15.0 0.00 0.00 0.00 44 1009.4
20260903004932 98 94 5.0 8.0 0.00 0.00 0.00 42 1009.5
20260903004432 98 87 4.0 12.0 0.00 0.00 0.00 42 1009.5
20260903003932 98 85 3.0 12.0 0.00 0.00 0.00 41 1009.5
20260903003432 99 78 6.0 12.0 0.00 0.00 0.00 41 1009.5
20260903002932 99 87 3.0 9.0 0.00 0.00 0.00 41 1009.5
20260903002432 99 86 3.0 10.0 0.00 0.00 0.00 40 1009.4
20260903001933 99 86 5.0 12.0 0.00 0.00 0.00 40 1009.4
20260903001432 100 90 7.0 12.0 0.00 0.00 0.00 39 1009.4
20260903000932 100 81 4.0 14.0 0.00 0.00 0.00 40 1009.2
20260903000433 99 91 5.0 14.0 0.00 0.00 0.00 40 1009.3
20260902235932 100 88 6.0 14.0 0.00 0.00 0.00 39 1009.2
20260902235433 100 84 6.0 12.0 0.00 0.00 0.00 39 1009.3
20260902234432 100 87 7.0 14.0 0.00 0.00 0.00 39 1009.3
20260902233934 101 92 6.0 14.0 0.00 0.00 0.00 38 1009.3
20260902232934 100 81 5.0 12.0 0.00 0.00 0.00 39 1009.4
20260902232432 100 104 6.0 13.0 0.00 0.00 0.00 39 1009.3
20260902231933 100 83 7.0 13.0 0.00 0.00 0.00 39 1009.3
20260902231432 100 79 7.0 13.0 0.00 0.00 0.00 39 1009.2
20260902230933 100 85 9.0 13.0 0.00 0.00 0.00 39 1009.3
20260902230432 101 76 7.0 14.0 0.00 0.00 0.00 39 1009.3
20260902224434 100 86 6.0 15.0 0.00 0.00 0.00 40 1009.3
20260902223433 101 81 9.0 15.0 0.00 0.00 0.00 39 1009.3
20260902222933 101 67 3.0 13.0 0.00 0.00 0.00 39 1009.3
20260902222433 101 84 3.0 13.0 0.00 0.00 0.00 39 1009.4
20260902221933 101 89 9.0 13.0 0.00 0.00 0.00 39 1009.4
20260902221433 101 99 5.0 13.0 0.00 0.00 0.00 40 1009.5
20260902220933 101 89 7.0 13.0 0.00 0.00 0.00 40 1009.6
20260902220433 100 92 6.0 13.0 0.00 0.00 0.00 40 1009.6
20260902215433 101 92 5.0 13.0 0.00 0.00 0.00 40 1009.6
20260902214933 101 112 3.0 16.0 0.00 0.00 0.00 39 1009.8
20260902214433 101 87 6.0 16.0 0.00 0.00 0.00 40 1009.8